Hamilton, OH

12:53 AM EDT on May 26, 2017 (GMT -0400)
Butler County Regional

Weather History for KHAO - August, 2013

Change the Weather History Date:

Thursday, August 29, 2013

  Actual Average (KLUK) Record (KLUK)
Temperature  
Mean Temperature 78 °F -  
Max Temperature 87 °F 84 °F 99 °F (2007)
Min Temperature 68 °F 63 °F 43 °F (1965)
Cooling Degree Days 12    
Growing Degree Days 28 (Base 50)    
Moisture  
Dew Point 69 °F    
Average Humidity 81    
Maximum Humidity 100    
Minimum Humidity 51    
Precipitation  
Precipitation 0.00 in - - ()
Sea Level Pressure  
Sea Level Pressure 30.02 in    
Wind  
Wind Speed 2 mph (NE)    
Max Wind Speed 8 mph    
Max Gust Speed -    
Visibility 6 miles    
Events      
Averages and records for this station are not official NWS values.
T = Trace of Precipitation, MM = Missing Value Source: NWS Daily Summary

Daily Weather History Graph

Daily Weather History Graph

Search for Another Location

Airport or City:

Trip Planner

Search our weather history database for the weather conditions in past years. The results will help you decide how hot, cold, wet, or windy it might be!

Date:

Astronomy

Aug. 29, 2013 Rise Set
Actual Time 7:04 AM EDT 8:13 PM EDT
Civil Twilight 6:36 AM EDT 8:40 PM EDT
Nautical Twilight 6:03 AM EDT 9:13 PM EDT
Astronomical Twilight 5:28 AM EDT 9:47 PM EDT
Moon 12:55 AM EDT (8/29) 3:40 PM EDT (8/29)
Length of Visible Light 14h 04m
Length of Day
13h 09m
Last Quarter, 38% of the Moon is Illuminated
Aug 29
Last Quarter
Sep 5
New
Sep 12
First Quarter
Sep 19
Full
Sep 26
Last Quarter

Hourly Weather History & Observations

Time (EDT) Temp. Heat Index Dew Point Humidity Pressure Visibility Wind Dir Wind Speed Gust Speed Precip Events Conditions
12:53 AM 73.9 °F - 72.0 °F 93% 29.97 in 7.0 mi Calm Calm - N/A   Clear
1:53 AM 73.9 °F - 71.1 °F 91% 29.98 in 6.0 mi NE 3.5 mph - N/A   Scattered Clouds
2:53 AM 75.0 °F - 71.1 °F 87% 29.98 in 8.0 mi ENE 4.6 mph - N/A   Clear
3:53 AM 73.0 °F - 71.1 °F 93% 29.98 in 7.0 mi Calm Calm - N/A   Overcast
4:53 AM 71.1 °F - 69.1 °F 93% 29.99 in 3.0 mi Calm Calm - N/A   Clear
5:26 AM 71.6 °F - 69.8 °F 94% 30.01 in 2.5 mi Calm Calm - N/A   Clear
5:35 AM 71.6 °F - 69.8 °F 94% 30.01 in 3.0 mi Calm Calm - N/A   Clear
5:51 AM 69.8 °F - 69.8 °F 100% 30.01 in 2.0 mi Calm Calm - N/A   Clear
5:53 AM 70.0 °F - 69.1 °F 97% 29.99 in 2.0 mi Calm Calm - N/A   Clear
6:17 AM 69.8 °F - 68.0 °F 94% 30.01 in 1.8 mi Calm Calm - N/A   Clear
6:26 AM 69.8 °F - 68.0 °F 94% 30.01 in 2.5 mi Calm Calm - N/A   Clear
6:53 AM 69.1 °F - 68.0 °F 96% 30.01 in 3.0 mi Calm Calm - N/A   Clear
7:02 AM 69.8 °F - 68.0 °F 94% 30.03 in 2.0 mi Calm Calm - N/A   Clear
7:09 AM 69.8 °F - 68.0 °F 94% 30.03 in 1.5 mi Calm Calm - N/A   Clear
7:23 AM 69.8 °F - 66.2 °F 88% 30.04 in 1.8 mi Calm Calm - N/A   Clear
7:53 AM 70.0 °F - 69.1 °F 97% 30.03 in 2.5 mi Calm Calm - N/A   Clear
8:17 AM 71.6 °F - 69.8 °F 94% 30.05 in 3.0 mi Calm Calm - N/A   Mostly Cloudy
8:24 AM 73.4 °F - 69.8 °F 88% 30.05 in 3.0 mi Calm Calm - N/A   Mostly Cloudy
8:53 AM 73.9 °F - 70.0 °F 87% 30.04 in 4.0 mi North 3.5 mph - N/A   Mostly Cloudy
9:09 AM 75.2 °F - 69.8 °F 83% 30.05 in 4.0 mi NNW 4.6 mph - N/A   Haze
9:53 AM 78.1 °F - 70.0 °F 76% 30.04 in 6.0 mi NNE 4.6 mph - N/A   Haze
10:05 AM 77.0 °F - 69.8 °F 78% 30.06 in 6.0 mi Calm Calm - N/A   Haze
10:19 AM 78.8 °F - 71.6 °F 78% 30.06 in 6.0 mi Variable 3.5 mph - N/A   Haze
10:53 AM 81.0 °F 84.4 °F 70.0 °F 69% 30.06 in 7.0 mi NNE 6.9 mph - N/A   Mostly Cloudy
11:24 AM 82.4 °F 86.3 °F 69.8 °F 66% 30.07 in 8.0 mi NE 8.1 mph - N/A   Scattered Clouds
11:53 AM 81.0 °F 84.1 °F 69.1 °F 67% 30.06 in 8.0 mi ENE 8.1 mph - N/A   Scattered Clouds
12:13 PM 80.6 °F 83.9 °F 69.8 °F 70% 30.07 in 8.0 mi NE 8.1 mph - N/A   Mostly Cloudy
12:23 PM 82.4 °F 86.3 °F 69.8 °F 66% 30.07 in 9.0 mi Variable 6.9 mph - N/A   Scattered Clouds
12:53 PM 82.0 °F 85.5 °F 69.1 °F 65% 30.05 in 10.0 mi North 8.1 mph - N/A   Mostly Cloudy
1:53 PM 82.9 °F 86.5 °F 69.1 °F 63% 30.05 in 10.0 mi East 8.1 mph - N/A   Mostly Cloudy
2:53 PM 84.9 °F 88.2 °F 68.0 °F 57% 30.03 in 10.0 mi East 8.1 mph - N/A   Scattered Clouds
3:53 PM 86.0 °F 88.8 °F 66.9 °F 53% 30.02 in 10.0 mi East 8.1 mph - N/A   Scattered Clouds
4:53 PM 86.0 °F 88.2 °F 66.0 °F 51% 30.01 in 10.0 mi East 8.1 mph - N/A   Partly Cloudy
5:53 PM 84.0 °F 86.5 °F 66.9 °F 56% 30.01 in 10.0 mi ENE 6.9 mph - N/A   Scattered Clouds
6:53 PM 84.0 °F 87.0 °F 68.0 °F 58% 30.00 in 10.0 mi ENE 8.1 mph - N/A   Scattered Clouds
7:53 PM 80.1 °F 82.9 °F 69.1 °F 69% 30.00 in 10.0 mi East 5.8 mph - N/A   Clear
8:53 PM 73.0 °F - 69.1 °F 87% 30.01 in 8.0 mi Calm Calm - N/A   Clear
9:53 PM 71.1 °F - 68.0 °F 90% 30.03 in 8.0 mi Calm Calm - N/A   Clear
10:53 PM 69.1 °F - 66.9 °F 93% 30.02 in 6.0 mi Calm Calm - N/A   Clear
11:53 PM 68.0 °F - 66.9 °F 96% 30.01 in 6.0 mi Calm Calm - N/A   Clear